Wind_Speed
55 56 54 58 64 69 80 77 62 58 68 65 60 54 51 49 43 39 38 40 39 42 40 38 35 33 31 30 28 27 28 27 26 25 24 24 23 22
54 58 58 58 63 71 75 88 88 65 71 77 75 63 57 52 50 49 45 41 43 43 44 41 38 36 35 32 31 31 30 29 28 27 26 25 25 24
55 58 58 57 62 68 75 81 94 84 68 69 77 67 61 57 53 53 50 48 46 44 45 46 42 39 38 36 34 33 32 31 30 29 28 27 26 26
58 59 63 62 62 65 72 79 90 90 94 65 64 62 61 61 60 52 50 49 48 45 47 50 46 42 40 38 37 35 35 33 32 31 30 29 28 26
61 61 61 65 67 68 68 77 80 97 101 95 68 60 66 70 64 55 51 50 49 46 48 53 50 44 43 41 41 38 37 35 34 32 32 31 29 29
60 67 65 64 65 67 72 74 79 86 97 105 74 60 65 57 62 56 54 56 52 52 48 54 52 50 46 44 43 41 39 38 35 34 33 32 32 31
63 62 69 66 64 66 72 73 79 74 101 105 92 70 55 58 64 61 55 56 55 55 49 57 57 56 52 48 47 44 42 39 38 36 35 34 34 32
68 66 67 68 67 64 69 75 79 81 94 90 84 64 58 66 66 63 58 59 60 57 51 56 58 58 54 50 47 46 42 40 40 38 37 36 35 35
66 64 62 65 64 63 65 75 79 81 82 83 103 63 62 63 73 70 64 63 59 59 51 53 57 60 56 53 46 45 42 42 41 41 39 38 38 38
58 55 56 59 60 60 62 73 79 81 85 80 116 62 68 55 70 69 62 57 56 55 45 48 52 60 57 54 49 45 44 44 44 42 42 40 40 39
49 48 49 53 54 57 58 63 69 76 79 76 113 56 65 61 69 63 60 56 59 55 50 51 55 55 57 55 52 49 47 45 45 44 43 43 43 42
38 41 41 39 44 52 53 57 60 65 68 90 98 60 49 53 54 71 59 56 55 57 54 54 54 51 58 58 54 52 51 48 46 47 45 45 44 45
41 38 35 31 35 38 46 54 56 56 63 86 79 54 66 69 62 69 61 63 57 58 53 52 51 51 51 54 56 55 54 52 51 49 47 47 47 47
31 39 27 31 31 33 40 42 43 42 53 80 70 55 66 72 70 65 62 63 58 52 49 48 49 50 47 48 52 54 55 53 53 52 49 46 47 46
11 23 27 14 24 26 30 28 28 44 56 59 71 60 68 79 65 62 59 53 58 57 56 47 46 44 45 47 46 49 51 53 51 51 50 51 49 49
27 14 20 20 24 28 26 39 50 66 53 32 55 81 75 66 61 58 56 61 54 58 55 52 49 47 51 49 48 50 51 51 50 50 48 50 51 53
25 15 22 27 20 21 37 62 50 38 40 38 47 71 72 62 58 52 52 55 56 57 61 57 57 54 52 48 48 50 49 51 51 49 51 50 51 51
23 21 19 18 21 22 29 35 40 42 46 54 69 63 58 56 56 58 55 57 55 52 58 56 54 53 53 52 50 49 48 50 50 51 51 52 51 49
14 19 21 16 13 11 19 30 40 48 57 50 57 55 50 51 58 57 56 51 58 46 52 54 49 48 49 52 47 45 45 43 45 49 50 52 51 48
8 8 10 12 15 15 9 10 11 19 25 41 45 49 49 41 45 43 46 55 51 51 43 51 53 55 50 49 45 42 41 39 41 43 44 44 46 47
5 5 5 6 8 6 7 10 9 13 20 26 26 29 35 38 38 38 40 39 42 46 52 51 52 55 55 53 52 53 49 45 44 45 45 46 47 49
8 6 5 3 1 3 6 6 3 5 7 12 18 24 26 27 30 33 34 37 41 41 42 46 49 55 51 55 48 51 52 51 50 49 48 48 49 50
9 7 5 5 4 3 5 6 8 11 12 13 12 12 19 23 30 35 36 37 40 36 40 40 40 41 43 46 50 49 49 51 54 54 52 54 54 53
Wind_Direction
270 266 256 244 242 239 233 230 231 225 233 238 229 241 233 232 234 234 240 240 237 240 235 236 232 228 224 223 226 223 221 220 219 218 215 215 214 214
274 270 265 257 240 239 236 230 229 232 228 236 241 243 235 233 236 241 238 235 237 236 236 233 233 230 229 224 221 225 223 221 220 220 218 216 217 216
274 270 268 262 257 239 237 234 230 228 228 226 236 226 232 227 235 243 248 240 232 234 234 232 231 230 230 227 224 224 226 223 221 221 220 219 219 219
274 269 264 260 256 253 239 235 229 224 226 221 212 223 231 226 233 241 243 243 238 228 232 233 230 230 228 229 227 224 226 225 223 222 222 221 220 221
271 269 264 260 255 250 246 237 232 223 228 228 216 225 229 231 232 233 237 234 238 227 230 232 230 228 228 227 227 226 227 226 225 224 224 224 222 222
267 264 262 259 255 246 242 242 234 229 225 230 223 223 226 228 227 227 234 232 230 227 227 231 228 226 227 226 227 225 227 227 226 225 225 226 225 223
272 267 260 256 255 248 240 241 241 233 222 226 219 211 209 228 223 220 228 231 228 227 225 230 226 225 224 224 226 224 224 226 228 226 226 226 228 226
280 273 263 255 252 246 238 235 240 234 228 228 211 204 204 227 221 221 220 226 223 225 225 231 228 228 227 226 227 228 224 225 228 229 228 228 229 230
281 274 265 256 246 244 242 234 236 236 229 223 216 206 208 226 227 222 222 233 226 227 225 232 232 232 229 228 227 230 227 228 228 229 230 228 230 231
274 275 268 251 244 241 242 234 234 233 231 221 212 197 204 221 227 221 228 230 230 229 228 236 238 235 232 231 226 227 229 228 230 228 230 230 231 233
266 268 262 250 236 231 236 232 231 231 230 221 213 192 195 212 225 222 221 229 224 228 223 227 233 234 232 231 229 226 228 228 230 231 230 231 232 233
279 252 247 250 236 227 227 225 224 225 224 217 206 200 192 204 218 214 221 228 228 227 226 229 233 234 233 228 227 227 229 229 230 231 232 233 234 236
288 258 236 227 221 211 216 217 220 222 218 210 209 194 200 212 214 213 219 226 231 230 229 232 234 235 238 235 232 230 230 232 232 233 234 234 235 238
272 258 244 222 206 208 211 205 206 209 207 206 205 201 201 211 213 213 225 228 232 235 235 234 237 239 240 240 235 232 231 233 234 235 236 238 239 241
311 226 247 213 181 184 200 214 201 192 183 200 213 211 209 214 215 218 226 228 234 222 224 225 233 235 233 233 236 236 237 235 237 238 238 239 241 242
58 110 136 155 180 189 194 185 177 181 189 201 196 207 215 212 214 219 219 228 225 223 218 219 224 228 226 228 229 232 235 235 237 237 238 238 238 241
34 81 101 155 157 175 174 176 189 211 225 204 211 217 213 217 219 217 222 223 222 217 217 216 223 224 230 230 231 232 234 235 235 236 240 240 241 241
355 42 57 76 110 153 191 199 210 213 213 214 204 210 211 223 221 218 227 225 225 231 227 221 227 229 232 231 231 230 230 233 235 237 238 241 243 244
9 22 44 60 66 130 148 152 170 182 196 210 214 214 216 220 219 229 221 224 219 222 223 224 223 230 236 236 234 234 234 236 238 240 241 243 245 244
4 45 56 50 61 83 109 129 147 183 182 185 190 198 204 210 216 217 220 226 228 227 229 221 226 224 228 235 235 235 238 237 238 240 242 244 246 244
22 39 65 85 96 86 71 106 153 191 189 190 185 194 201 204 210 217 212 215 223 231 230 231 233 233 233 234 237 240 236 239 236 239 242 243 244 245
13 8 12 24 62 151 153 152 170 143 187 224 205 202 210 212 212 215 225 223 219 224 226 228 235 235 235 235 239 237 236 238 237 238 238 242 244 248
9 15 8 356 327 262 248 219 204 194 213 214 215 226 226 218 217 218 222 225 225 229 227 229 230 232 234 236 236 237 237 237 237 236 235 241 244 246
Height
3005 3007 3014 3020 3021 3024 3029 3034 3040 3043 3048 3052 3059 3068 3075 3082 3089 3092 3096 3103 3106 3109 3114 3117 3118 3121 3125 3127 3131 3135 3137 3139 3142 3145 3148 3151 3154 3156
2987 2987 2992 2996 3004 3006 3010 3015 3021 3028 3028 3041 3047 3054 3064 3072 3079 3083 3085 3090 3095 3100 3106 3109 3111 3114 3118 3121 3124 3129 3132 3134 3137 3140 3143 3146 3149 3152
2971 2970 2972 2977 2978 2986 2990 2995 3002 3011 3015 3025 3033 3038 3045 3057 3067 3072 3075 3079 3083 3090 3097 3101 3104 3107 3111 3114 3117 3121 3126 3129 3131 3135 3138 3141 3144 3147
2948 2949 2952 2957 2958 2961 2967 2973 2980 2996 2997 3008 3016 3022 3030 3042 3051 3060 3065 3071 3074 3079 3085 3092 3095 3098 3102 3107 3110 3113 3118 3123 3125 3128 3132 3135 3138 3141
2926 2926 2931 2932 2936 2939 2943 2949 2958 2972 2977 2986 3000 3007 3016 3027 3036 3047 3053 3058 3063 3067 3073 3080 3086 3089 3093 3098 3102 3105 3110 3115 3119 3123 3126 3129 3132 3135
2906 2904 2906 2905 2910 2917 2920 2926 2936 2945 2960 2962 2983 2992 3000 3010 3023 3032 3038 3044 3050 3054 3059 3069 3076 3079 3083 3088 3094 3097 3101 3108 3112 3116 3119 3123 3126 3129
2883 2881 2881 2881 2887 2893 2898 2904 2911 2923 2933 2943 2962 2979 2982 2994 3003 3016 3024 3032 3038 3043 3047 3056 3062 3067 3071 3077 3083 3088 3092 3099 3105 3108 3112 3116 3119 3123
2856 2853 2852 2858 2862 2868 2874 2882 2889 2900 2908 2923 2938 2953 2964 2979 2994 3002 3012 3017 3021 3030 3033 3043 3052 3057 3064 3067 3075 3081 3084 3090 3096 3101 3104 3108 3112 3116
2830 2826 2826 2828 2838 2845 2852 2858 2865 2875 2888 2905 2914 2932 2949 2965 2979 2991 2998 3006 3014 3022 3026 3034 3043 3048 3054 3060 3066 3073 3077 3081 3086 3091 3096 3099 3103 3107
2813 2806 2801 2802 2810 2821 2829 2834 2842 2852 2864 2880 2901 2919 2937 2956 2965 2982 2993 3003 3009 3012 3019 3024 3032 3037 3046 3052 3056 3063 3068 3072 3076 3081 3086 3090 3093 3098
2794 2787 2781 2779 2784 2798 2807 2814 2825 2833 2851 2867 2887 2907 2925 2940 2957 2970 2978 2985 2992 3000 3005 3011 3016 3026 3034 3040 3047 3052 3058 3061 3066 3071 3076 3080 3084 3088
2777 2772 2770 2768 2769 2781 2788 2799 2808 2820 2839 2856 2870 2891 2906 2922 2940 2953 2967 2974 2983 2986 2993 3000 3005 3015 3017 3026 3036 3042 3046 3050 3055 3060 3066 3071 3075 3077
2762 2759 2759 2760 2764 2768 2777 2787 2798 2819 2833 2848 2872 2884 2902 2916 2925 2941 2952 2964 2969 2972 2984 2993 2997 3003 3009 3018 3026 3032 3037 3042 3044 3050 3055 3060 3064 3067
2756 2747 2749 2753 2760 2768 2775 2784 2798 2815 2829 2846 2863 2878 2893 2904 2916 2929 2940 2951 2958 2968 2980 2985 2989 2992 3000 3008 3014 3021 3026 3031 3034 3039 3045 3051 3053 3058
2757 2747 2747 2754 2761 2770 2777 2789 2796 2808 2829 2846 2863 2874 2885 2898 2912 2924 2930 2940 2949 2954 2963 2971 2977 2984 2989 2994 3003 3009 3014 3019 3025 3029 3033 3037 3043 3046
2777 2763 2760 2762 2765 2767 2774 2784 2799 2815 2831 2843 2856 2870 2882 2893 2902 2909 2920 2930 2936 2942 2950 2958 2965 2971 2975 2981 2990 2995 3001 3006 3013 3015 3021 3024 3028 3032
2794 2784 2779 2774 2776 2780 2786 2796 2810 2819 2828 2838 2849 2857 2869 2882 2894 2902 2910 2918 2924 2930 2936 2945 2951 2958 2964 2972 2976 2982 2988 2994 2999 3006 3007 3011 3015 3019
2806 2796 2791 2790 2791 2793 2799 2806 2810 2816 2825 2832 2844 2854 2866 2874 2881 2891 2897 2905 2914 2920 2927 2934 2941 2948 2953 2958 2963 2968 2974 2981 2987 2992 2996 2998 3002 3008
2805 2800 2796 2796 2798 2800 2804 2807 2812 2815 2823 2832 2841 2848 2857 2865 2872 2880 2889 2898 2904 2909 2916 2922 2930 2936 2941 2944 2955 2960 2965 2971 2976 2979 2982 2985 2992 2998
2816 2814 2811 2810 2808 2807 2809 2810 2814 2819 2823 2827 2836 2843 2851 2859 2866 2873 2880 2887 2893 2898 2905 2912 2919 2923 2930 2935 2942 2951 2955 2959 2963 2968 2971 2974 2978 2982
2820 2819 2819 2817 2816 2816 2818 2819 2821 2823 2826 2830 2836 2842 2847 2853 2858 2865 2871 2876 2882 2889 2895 2901 2907 2912 2917 2921 2928 2934 2941 2946 2951 2956 2959 2960 2963 2966
2819 2818 2816 2817 2817 2819 2821 2822 2825 2827 2828 2832 2837 2840 2844 2847 2853 2860 2865 2870 2874 2880 2884 2889 2895 2901 2906 2909 2914 2920 2925 2933 2938 2942 2945 2948 2951 2952
2822 2821 2820 2819 2820 2822 2823 2824 2826 2828 2834 2836 2836 2840 2843 2847 2851 2856 2860 2865 2869 2872 2876 2880 2885 2890 2894 2897 2902 2906 2910 2915 2920 2925 2931 2937 2939 2941